Copper Harbor, MI

1:28 AM EST on February 23, 2017 (GMT -0500)
Copper Harbor

Weather History for KP59 - June, 2013

Change the Weather History Date:

Friday, June 14, 2013

  Actual Average Record
Temperature  
Mean Temperature 52 °F -  
Max Temperature 64 °F 62 °F 79 °F (2001)
Min Temperature 42 °F 45 °F 39 °F (1997)
Degree Days  
Heating Degree Days 12    
Growing Degree Days 2 (Base 50)    
Moisture  
Dew Point 38 °F    
Average Humidity 59    
Maximum Humidity 93    
Minimum Humidity 32    
Precipitation  
Precipitation 0.00 in - - ()
Sea Level Pressure  
Sea Level Pressure 30.12 in    
Wind  
Wind Speed 4 mph (South)    
Max Wind Speed 12 mph    
Max Gust Speed 21 mph    
Averages and records for this station are not official NWS values.
T = Trace of Precipitation, MM = Missing Value Source: NWS Daily Summary

Daily Weather History Graph

Daily Weather History Graph

Search for Another Location

Airport or City:

Trip Planner

Search our weather history database for the weather conditions in past years. The results will help you decide how hot, cold, wet, or windy it might be!

Date:

Astronomy

Jun. 14, 2013 Rise Set
Actual Time 5:53 AM EDT 9:50 PM EDT
Civil Twilight 5:13 AM EDT 10:30 PM EDT
Nautical Twilight 4:18 AM EDT 11:26 PM EDT
Astronomical Twilight 2:51 AM EDT 12:53 AM EDT
Moon 11:49 AM EDT (6/14) 12:36 AM EDT (6/14)
Length of Visible Light 17h 16m
Length of Day
15h 56m
Waxing Crescent, 30% of the Moon is Illuminated
Jun 14
Waxing Crescent
Jun 16
First Quarter
Jun 23
Full
Jun 30
Last Quarter
Jul 8
New

Hourly Weather History & Observations

Time (EDT) Temp. Windchill Dew Point Humidity Pressure Visibility Wind Dir Wind Speed Gust Speed Precip Events Conditions
12:51 AM 52.0 °F - 43.0 °F 71% 30.15 in - Variable 3.5 mph - N/A   Unknown
1:51 AM 50.0 °F - 43.0 °F 77% 30.15 in - Calm Calm - N/A   Unknown
2:51 AM 46.0 °F 44.8 °F 44.1 °F 93% 30.15 in - SW 3.5 mph - N/A   Unknown
3:51 AM 44.1 °F 41.5 °F 42.1 °F 93% 30.16 in - SW 4.6 mph - N/A   Unknown
4:51 AM 43.0 °F 39.5 °F 41.0 °F 93% 30.15 in - WSW 5.8 mph - N/A   Unknown
5:51 AM 42.1 °F 39.2 °F 39.0 °F 89% 30.16 in - WSW 4.6 mph - N/A   Unknown
6:51 AM 44.1 °F - 39.9 °F 85% 30.17 in - Calm Calm - N/A   Unknown
7:51 AM 50.0 °F - 42.1 °F 74% 30.19 in - Calm Calm - N/A   Unknown
8:51 AM 52.0 °F - 41.0 °F 66% 30.19 in - ESE 3.5 mph - N/A   Unknown
9:51 AM 52.0 °F - 37.0 °F 57% 30.19 in - SE 5.8 mph - N/A   Unknown
10:51 AM 55.0 °F - 39.0 °F 55% 30.18 in - ESE 5.8 mph - N/A   Unknown
11:51 AM 60.1 °F - 37.0 °F 42% 30.17 in - SW 6.9 mph - N/A   Unknown
12:51 PM 62.1 °F - 35.1 °F 37% 30.15 in - Variable 3.5 mph - N/A   Unknown
1:51 PM 61.0 °F - 37.9 °F 42% 30.13 in - Variable 3.5 mph - N/A   Unknown
2:51 PM 61.0 °F - 37.9 °F 42% 30.13 in - Variable 4.6 mph - N/A   Unknown
3:51 PM 63.0 °F - 43.0 °F 48% 30.11 in - ESE 5.8 mph - N/A   Unknown
4:51 PM 62.1 °F - 35.1 °F 37% 30.10 in - ESE 6.9 mph - N/A   Unknown
5:51 PM 62.1 °F - 32.0 °F 32% 30.08 in - ESE 5.8 mph - N/A   Unknown
6:51 PM 57.9 °F - 30.9 °F 36% 30.06 in - ESE 4.6 mph - N/A   Unknown
7:51 PM 61.0 °F - 35.1 °F 38% 30.05 in - Calm Calm - N/A   Unknown
8:51 PM 57.9 °F - 33.1 °F 39% 30.04 in - Calm Calm - N/A   Unknown
9:51 PM 55.0 °F - 34.0 °F 45% 30.03 in - Calm Calm - N/A   Unknown
10:51 PM 52.0 °F - 37.0 °F 57% 30.03 in - WSW 10.4 mph 19.6 mph N/A   Unknown
11:51 PM 51.1 °F - 36.0 °F 56% 30.00 in - WSW 11.5 mph 20.7 mph N/A   Unknown